Regional Weather Roundup
Issued by NWS State College, PA

Home | Current Version | Previous Version | Graphics & Text | Print | Product List | Glossary Off
Versions: 1 2 3 4 5 6 7 8 9 10 11 12 13 14 15 16 17 18 19 20 21 22 23 24 25 26 27 28 29 30 31 32 33 34 35 36 37 38 39 40 41 42 43 44 45 46 47 48 49 50

000
ASUS41 KCTP 282210
RWRCTP

REGIONAL WEATHER ROUNDUP
NATIONAL WEATHER SERVICE STATE COLLEGE PA
500 PM EST FRI NOV 28 2014

Note: "fair" indicates few or no clouds below 12,000 feet with no
significant weather and/or obstructions to visibility.

* = STATION THAT DOES NOT REPORT PRECIPITATION /E.G. RAIN...SNOW...ETC/
    THUNDER OR FOG.

PAZ002>004-007>009-013>016-020>023-029>032-282300-
WESTERN PENNSYLVANIA

CITY           SKY/WX    TMP DP  RH WIND       PRES   REMARKS
ERIE           CLOUDY    27  15  61 SW9       30.23S
MEADVILLE      MOCLDY    23  12  62 SW3       30.19F
FRANKLIN*      CLOUDY    23  10  58 W5        30.21S
NEW CASTLE       N/A     25  15  65 CALM      30.25S
BEAVER COUNTY  NOT AVBL
BUTLER*        CLOUDY    27  14  59 SW6       30.24S
PITTSBURGH INT MOCLDY    27  15  61 SW8       30.22F
PITTSBURGH     CLOUDY    26  14  60 W6        30.22F
INDIANA*       PTCLDY    25  14  63 W3        30.25S
LATROBE        CLOUDY    27  16  63 W12       30.25S
WASHINGTON CO* MOCLDY    27  18  69 SW3       30.24F
$$

PAZ004>006-010>012-017>019-024>028-033>037-041-042-045-046-049>053-282300-
CENTRAL PENNSYLVANIA

CITY           SKY/WX    TMP DP  RH WIND       PRES   REMARKS
BRADFORD       PTCLDY    19   9  65 NW5       30.14R WCI  12
DUBOIS         PTCLDY    21  12  68 W5        30.17S WCI  15
CLEARFIELD     CLOUDY    24  12  60 W9        30.19S WCI  14
JOHNSTOWN      CLEAR     21  10  62 W9        30.14S WCI  11
ALTOONA        CLEAR     23  11  60 W6        30.21R
STATE COLLEGE  MOCLDY    25  12  58 W9        30.21R
WILLIAMSPORT   CLEAR     29  12  49 W7        30.21R
SELINSGROVE    CLEAR     30  15  53 SW5       30.24R
FT INDIANTOWN  CLEAR     31  13  48 W3        30.24R
CAPITAL CITY   CLEAR     31  15  52 W5        30.25R
HARRISBURG     PTCLDY    32  15  49 W8        30.25R
YORK           CLEAR     29  15  56 W6        30.24S
$$

PAZ038>040-043-044-047-048-054-055-060>062-067>071-282300-
EASTERN PENNSYLVANIA

CITY           SKY/WX    TMP DP  RH WIND       PRES   REMARKS
SCRANTON       CLEAR     25  11  55 NE3       30.19R
MOUNT POCONO   CLEAR     21   9  59 NW9       30.11R WCI  11
ALLENTOWN      CLEAR     31  13  47 W3        30.22S
QUAKERTOWN*    CLEAR     28  16  59 NW3       30.22S
READING        CLEAR     32  17  54 W7        30.23S
LANCASTER      CLEAR     30  17  58 NW6       30.24R
COATESVILLE    CLEAR     30  18  59 NW10      30.23R
POTTSTOWN      CLEAR     30  15  53 NW6       30.25R
BLUE BELL      CLEAR     32  19  59 CALM      30.22S
DOYLESTOWN     NOT AVBL
WILLOW GROVE   NOT AVBL
NORTH PHILA    CLEAR     34  14  43 NW8       30.25R
PHILADELPHIA   PTCLDY    35  15  44 NW9       30.26R
$$


USA.gov is the U.S. government's official web portal to all federal, state and local government web resources and services.